Poplar Bluff, MO

7:11 PM CDT on September 16, 2019 (GMT -0500)
Poplar Bluff Municipal

Weather History for KPOF - May, 2019

Change the Weather History Date:

Thursday, May 23, 2019

  Actual Average Record
Temperature  
Mean Temperature 80 °F -  
Max Temperature 86 °F 78 °F 94 °F (1925)
Min Temperature 70 °F 57 °F 40 °F (1931)
Cooling Degree Days 14    
Growing Degree Days 30 (Base 50)    
Moisture  
Dew Point 73 °F    
Average Humidity 83    
Maximum Humidity 100    
Minimum Humidity 63    
Precipitation  
Precipitation 0.00 in - - ()
Sea Level Pressure  
Sea Level Pressure 30.05 in    
Wind  
Wind Speed 8 mph (SSW)    
Max Wind Speed 18 mph    
Max Gust Speed 30 mph    
Visibility 10 miles    
Events      
Averages and records for this station are not official NWS values.
T = Trace of Precipitation, MM = Missing Value Source: NWS Daily Summary

Daily Weather History Graph

Daily Weather History Graph

Search for Another Location

Airport or City:

Astronomy

May. 23, 2019 Rise Set
Actual Time 5:48 AM CDT 8:08 PM CDT
Civil Twilight 5:18 AM CDT 8:37 PM CDT
Nautical Twilight 4:42 AM CDT 9:14 PM CDT
Astronomical Twilight 4:02 AM CDT 9:54 PM CDT
Moon No Moon Rise 9:52 AM CDT (5/23)
Length of Visible Light 15h 19m
Length of Day
14h 20m
Waning Gibbous, 77% of the Moon is Illuminated
May 23
Waning Gibbous
May 26
Last Quarter
Jun 3
New
Jun 10
First Quarter
Jun 17
Full

Hourly Weather History & Observations

Time (CDT) Temp. Heat Index Dew Point Humidity Pressure Visibility Wind Dir Wind Speed Gust Speed Precip Events Conditions
12:53 AM 75.0 °F - 73.0 °F 94% 29.98 in 10.0 mi SW 3.5 mph - N/A   Clear
1:53 AM 75.0 °F - 73.0 °F 94% 29.96 in 10.0 mi SSE 8.1 mph - N/A   Partly Cloudy
2:53 AM 75.0 °F - 73.0 °F 94% 30.00 in 10.0 mi SW 3.5 mph - N/A   Mostly Cloudy
3:53 AM 75.0 °F - 73.0 °F 94% 30.02 in 10.0 mi SSW 5.8 mph - N/A   Clear
4:53 AM 73.9 °F - 73.0 °F 97% 30.02 in 10.0 mi South 8.1 mph - N/A   Clear
5:53 AM 75.0 °F - 72.0 °F 90% 30.05 in 10.0 mi SSW 10.4 mph - N/A   Clear
6:53 AM 75.0 °F - 72.0 °F 90% 30.08 in 10.0 mi SSW 8.1 mph - N/A   Clear
7:53 AM 77.0 °F - 73.0 °F 88% 30.08 in 10.0 mi SSW 10.4 mph - N/A   Clear
8:53 AM 78.1 °F - 73.0 °F 84% 30.08 in 10.0 mi SSW 11.5 mph 23.0 mph N/A   Clear
9:53 AM 79.0 °F - 73.9 °F 84% 30.09 in 10.0 mi SSW 13.8 mph - N/A   Clear
10:53 AM 81.0 °F 86.2 °F 73.9 °F 79% 30.11 in 10.0 mi SSW 13.8 mph 21.9 mph N/A   Clear
11:53 AM 82.0 °F 88.6 °F 75.0 °F 79% 30.12 in 10.0 mi SSW 11.5 mph 21.9 mph N/A   Clear
12:53 PM 84.9 °F 92.1 °F 73.9 °F 69% 30.12 in 10.0 mi SW 12.7 mph - N/A   Scattered Clouds
1:53 PM 84.9 °F 93.3 °F 75.0 °F 72% 30.10 in 10.0 mi South 12.7 mph - N/A   Scattered Clouds
2:53 PM 86.0 °F 93.8 °F 73.9 °F 67% 30.08 in 10.0 mi SSW 13.8 mph - N/A   Clear
3:53 PM 86.0 °F 93.8 °F 73.9 °F 67% 30.06 in 10.0 mi South 15.0 mph 24.2 mph N/A   Clear
4:53 PM 86.0 °F 93.0 °F 73.0 °F 65% 30.04 in 10.0 mi SSW 13.8 mph - N/A   Clear
5:53 PM 84.9 °F 90.1 °F 71.1 °F 63% 30.02 in 10.0 mi SSW 18.4 mph 29.9 mph N/A   Clear
6:53 PM 84.0 °F 89.6 °F 72.0 °F 67% 30.02 in 10.0 mi SSW 12.7 mph - N/A   Clear
7:53 PM 81.0 °F 85.2 °F 72.0 °F 74% 30.02 in 10.0 mi South 4.6 mph - N/A   Clear
8:53 PM 78.1 °F - 73.0 °F 84% 30.04 in 10.0 mi South 3.5 mph - N/A   Clear
9:53 PM 73.9 °F - 73.0 °F 97% 30.05 in 10.0 mi Calm Calm - N/A   Clear
10:53 PM 73.0 °F - 72.0 °F 96% 30.06 in 10.0 mi Calm Calm - N/A   Clear
11:53 PM 70.0 °F - 70.0 °F 100% 30.05 in 8.0 mi Calm Calm - N/A   Clear